Location: Borgo a Collina
(43.7500°N, 11.7167°E)
Time: 07:56:05
(UTC+00:00)

Daily predictions for brighter satellites

Satellite Brightness Start Highest point End
(mag) Time Altitude Azimuth Time Altitude Azimuth Time Altitude Azimuth
Cosmos 1656 Rocket 4.2 18:07:19 10° NNW 18:12:41 42° ENE 18:17:57 10° SE
Aureole 2 Rocket 2.8 18:11:31 10° NNW 18:14:58 66° WSW 18:18:17 10° S
Cosmos 2184 Rocket 4.3 18:09:43 10° N 18:15:45 45° ENE 18:21:39 10° SSE
Cosmos 1726 2.5 18:12:38 10° SSE 18:16:10 41° E 18:19:43 10° NNE
COSMOS 2455 4.3 18:11:56 10° N 18:16:38 23° NE 18:21:19 10° E
Meteor 2-10 4.3 18:12:55 10° S 18:18:11 53° E 18:23:39 10° NNE
Cosmos 1602 Rocket 3.7 18:16:01 10° N 18:20:27 81° W 18:24:48 10° S
CZ-2C R/B 4.0 18:18:03 10° NE 18:21:18 17° E 18:24:33 10° SE
IRIDIUM 114 4.5 18:17:14 10° N 18:22:22 54° E 18:27:27 10° SSE
ARGOS 3.4 18:20:49 10° SE 18:25:59 49° ENE 18:31:09 10° N
Cosmos 1726 Rocket 4.3 18:24:27 10° SSE 18:28:22 32° E 18:32:20 10° NNE
FREGAT/IRIS 2.8 18:26:47 10° SSE 18:29:22 41° ENE 18:31:58 10° N
SJ-11-01 4.3 18:26:45 10° SSE 18:31:27 87° ENE 18:36:13 10° NNW
IRIDIUM 103 4.3 18:26:22 10° N 18:31:34 66° E 18:36:44 10° SSE
Resurs 01 Rocket 3.3 18:30:56 11° ESE 18:33:41 18° ENE 18:36:36 10° NNE
Nadezhda 1 Rocket 4.4 18:28:56 10° SSE 18:34:55 44° E 18:40:53 10° NNE
Cosmos 1825 Rocket 3.6 18:32:30 10° N 18:36:51 58° E 18:41:07 10° SSE
USA 186 1.8 18:34:28 10° SSE 18:37:45 60° ENE 18:40:55 10° N
Cosmos 2154 Rocket 4.4 18:32:18 10° N 18:38:21 44° ENE 18:44:21 10° SSE
GEOS 3 Rocket 3.9 18:36:21 10° SSE 18:41:27 68° SW 18:46:40 10° NW
ARGOS Delta rocket 4.4 18:37:13 10° S 18:42:30 75° W 18:48:00 10° NNW
Cosmos 921 Rocket 4.3 18:39:24 10° N 18:42:43 22° ENE 18:44:55 15° ESE
SL-24 R/B - RUBIN 2 4.4 18:37:49 10° S 18:43:04 48° ESE 18:48:58 10° NE
Cosmos 407 Rocket 3.7 18:38:38 10° S 18:43:30 44° ESE 18:48:21 10° NNE
Cosmos 2228 3.0 18:42:49 10° S 18:47:02 61° E 18:51:20 10° NNE
SPOT 3 Rocket 3.9 18:44:04 10° SE 18:49:01 46° ENE 18:53:59 10° N
IRIDIUM 106 4.4 18:44:36 10° N 18:49:51 86° W 18:55:04 10° S
Cosmos 1758 Rocket 3.6 18:46:16 10° N 18:50:38 83° W 18:54:55 10° S
Aureole 1 Rocket 4.2 18:44:18 10° S 18:51:53 63° ESE 18:57:55 10° NNE
Cosmos 1461 3.8 18:48:24 10° NNW 18:52:40 39° NE 18:55:36 19° ESE
SJ-6B 2.9 18:51:28 10° SSE 18:55:34 76° ENE 18:59:42 10° N
STARLINK-29 3.2 18:53:42 10° SSW 18:56:46 43° SE 18:58:47 18° ENE
Cosmos 1606 Rocket 3.5 18:53:36 10° S 18:58:02 86° E 19:02:32 10° N
Cosmos 1953 Rocket 3.6 18:54:05 10° N 18:58:34 67° E 19:03:01 10° SSE
ATLAS 5 CENTAUR R/B 1.6 18:54:39 10° SSW 18:58:38 51° ESE 19:03:02 10° NE
STARLINK-60 3.1 18:55:28 10° WSW 18:58:45 78° NW 19:02:02 10° NE
Cosmos 2074 Rocket 4.1 18:53:50 10° N 19:00:09 82° W 19:06:27 10° S
Meteor 1-16 Rocket 4.3 18:57:11 10° SSW 19:02:34 77° W 19:08:10 10° N
Cosmos 1818 4.2 18:58:22 10° SW 19:03:43 59° NW 19:09:08 10° NNE
Cosmos 1023 Rocket 4.5 19:03:55 10° S 19:08:58 57° ESE 19:14:01 10° NNE
Abrixas rocket 3.0 19:07:31 10° WNW 19:10:19 37° N 19:11:30 25° ENE
Cosmos 1943 Rocket 4.3 19:08:18 10° NW 19:12:42 24° WSW 19:17:05 10° SSW
NOSS 3-4 (A) 3.9 19:07:52 10° NW 19:14:56 83° NE 19:20:34 20° SE
NOSS 3-4 (C) 3.9 19:07:58 10° NW 19:15:02 82° NE 19:20:38 21° SE
Cosmos 1610 Rocket 4.4 19:10:34 10° N 19:16:47 88° E 19:22:54 10° S
Cosmos 1300 3.3 19:17:24 34° ESE 19:17:52 35° E 19:21:22 10° NNE
FALCON 9 DEB 3.0 19:15:13 10° SW 19:18:41 66° SE 19:20:16 29° ENE
SL-4 R/B 2.9 19:16:31 10° W 19:19:43 38° NNW 19:22:39 12° NE
Cosmos 2369 Rocket 4.1 19:17:39 10° NW 19:22:21 28° WSW 19:27:02 10° SSW
Cosmos 1340 Rocket 2.7 19:18:23 10° S 19:22:26 83° ESE 19:26:30 10° NNE
MOS 1 Rocket 3.6 19:18:22 10° NNE 19:23:46 65° E 19:29:09 10° S
STARLINK-1201 4.3 19:21:44 10° NW 19:24:41 30° NNE 19:25:27 27° NE
H-2A R/B 3.2 19:20:03 10° S 19:24:58 42° W 19:29:48 10° NNW
CZ-2C R/B 3.8 19:21:21 10° NNE 19:26:05 81° WNW 19:30:41 10° SSW
Cosmos 1703 4.2 19:22:54 10° NNW 19:26:45 49° W 19:30:34 10° S
STARLINK-67 2.9 19:24:51 10° NW 19:27:10 52° N 19:27:10 52° N
CZ-2C R/B 4.1 19:23:08 10° S 19:27:46 41° W 19:32:17 10° NNW
Cosmos 1295 Rocket 4.5 19:25:59 10° N 19:32:19 85° E 19:37:34 16° S
STARLINK-52 2.8 19:34:03 10° SW 19:37:16 86° NNW 19:37:28 76° NE
Resurs 1-3 3.7 19:37:16 25° S 19:39:46 73° WSW 19:44:10 10° NNW
USA 234 3.3 19:36:13 10° ENE 19:42:35 52° SE 19:48:54 10° SSW
Iridium 4 Rocket 4.1 19:42:04 10° NNE 19:44:58 29° ENE 19:44:58 29° ENE
ATLAS 2AS CENTAUR R/B 3.1 19:39:47 10° NW 19:47:11 62° WSW 19:51:22 25° SSE
STARLINK-1228 3.7 19:44:48 10° NW 19:47:06 45° NNW 19:47:06 45° NNW
Cosmos 1140 Rocket 3.9 19:46:06 10° SSW 19:51:14 63° WNW 19:56:23 10° NNE
CZ-4C R/B 4.4 19:47:12 10° NNW 19:52:26 22° NNE 19:56:49 14° ENE
Cosmos 2341 Rocket 4.0 19:49:51 10° N 19:56:17 86° W 19:59:56 28° S
Spot 2 Rocket 3.5 19:56:54 53° ESE 19:57:45 61° ENE 20:02:47 10° N
Cosmos 2058 Rocket 4.3 19:53:48 10° SSW 19:58:05 43° WNW 20:02:24 10° N
Landsat 7 4.2 19:58:57 45° ENE 19:58:57 45° ENE 20:03:30 10° N
CZ-2C R/B 2.9 19:56:55 10° N 20:02:02 64° WNW 20:07:10 10° SSW
COSMOS 2455 2.8 19:57:13 10° NNW 20:03:17 80° WSW 20:05:12 46° SSE
Cosmos 1697 Rocket 4.1 19:58:56 10° N 20:03:20 22° NE 20:04:03 22° ENE
IGS 5A 4.2 20:06:52 41° NE 20:06:52 41° NE 20:10:04 10° N
Iridium 2 4.2 20:07:49 54° N 20:07:49 54° N 20:10:50 10° N
Resurs 01 Rocket 2.3 20:08:30 37° SSW 20:09:47 50° W 20:14:05 10° NNW
Cosmos 2218 Rocket 3.9 20:04:24 10° N 20:10:38 77° E 20:12:18 51° SSE
STARLINK-1244 4.5 20:08:51 10° NW 20:12:41 41° NNE 20:12:41 41° NNE
ERBS 4.2 20:10:19 10° NNW 20:12:22 26° N 20:12:22 26° N
BREEZE-M DEB (TANK) 4.1 20:13:23 10° WNW 20:15:10 20° NW 20:15:10 20° NW
ATLAS CENTAUR R/B 3.7 20:15:21 10° N 20:16:45 13° NNE 20:16:45 13° NNE
STARLINK-1138 4.5 20:13:50 10° NW 20:17:28 43° N 20:17:28 43° N
Cosmos 468 Rocket 4.0 20:13:01 10° NNW 20:18:01 60° ENE 20:18:01 60° ENE
Cosmos 921 Rocket 4.3 20:17:17 10° NW 20:21:02 33° W 20:21:45 31° WSW
USA 245 4.3 20:21:27 61° S 20:22:33 88° WSW 20:28:56 10° NNW
Meteor 2-12 Rocket 4.3 20:16:50 10° N 20:22:56 71° E 20:23:32 66° ESE
Cosmos 2181 Rocket 4.1 20:20:34 24° SSW 20:24:30 71° W 20:30:42 10° N
ERS-1 Rocket 3.3 20:27:20 52° NE 20:27:20 52° NE 20:31:39 10° N
SL-8 Rocket 4.2 20:20:43 10° NNW 20:27:00 69° W 20:29:12 42° SSW
Cosmos 1812 Rocket 4.0 20:29:45 58° NNW 20:29:45 58° NNW 20:33:28 10° N
Cosmos 864 Rocket 4.4 20:23:20 10° N 20:29:35 85° W 20:30:45 61° S
Cosmos 1656 3.9 20:25:30 10° NNW 20:30:56 55° NE 20:30:56 55° NE
Cosmos 1980 Rocket 3.8 20:28:20 10° N 20:32:32 21° NE 20:32:34 21° NE
SPOT 5 3.9 20:34:13 33° NNE 20:34:13 33° NNE 20:36:53 10° N
Cosmos 1892 4.1 20:29:40 10° N 20:32:00 35° N 20:32:00 35° N
Cosmos 2366 rocket 4.1 20:33:46 10° NNW 20:39:52 69° W 20:41:05 55° SSW
Terra 3.0 20:42:27 34° NNE 20:42:27 34° NNE 20:45:32 10° N
ATLAS 5 CENTAUR R/B 3.9 20:40:06 10° W 20:43:34 23° NW 20:47:25 10° NNE
Nadezhda 3 Rocket 4.3 20:50:21 55° NE 20:50:21 55° NE 20:55:35 10° NNE
Cosmos 2058 4.5 20:47:59 10° NNW 20:50:48 34° NW 20:50:48 34° NW
SPOT 1/Viking Rocket 3.8 20:52:37 64° WNW 20:52:37 64° WNW 20:57:25 10° NNW
Cosmos 1741 Rocket 4.4 20:54:59 62° NNW 20:54:59 62° NNW 20:59:39 10° NNE
RESURS DK-1 4.3 20:51:15 10° NNW 20:53:17 27° N 20:53:17 27° N
Cosmos 2082 Rocket 4.4 21:03:59 14° NE 21:03:59 14° NE 21:04:54 10° NE
Cosmos 1833 Rocket 4.2 21:13:44 27° NNE 21:13:44 27° NNE 21:16:16 10° NNE
Cosmos 1763 Rocket 4.4 21:06:37 10° NNW 21:10:29 45° WNW 21:10:29 45° WNW
BREEZE M DEB (TANK) 4.2 21:13:32 10° W 21:17:56 65° N 21:33:41 10° ENE
COSMOS 2406 3.9 21:21:00 52° NNW 21:21:00 52° NNW 21:25:45 10° NNE
Cosmos 1821 Rocket 4.2 21:14:54 10° N 21:20:35 70° NNW 21:20:35 70° NNW
USA 234 3.8 21:19:15 10° NE 21:25:37 55° NNW 21:31:57 10° WSW
CZ-4C R/B 3.1 21:35:11 10° NNW 21:41:59 63° NE 21:41:59 63° NE
Cosmos 1697 Rocket 3.9 21:42:11 10° NNW 21:45:47 39° NW 21:45:47 39° NW
Mayak 1.6 21:47:13 10° N 21:47:47 14° N 21:47:47 14° N
SL-16 R/B 3.9 22:00:59 10° N 22:04:14 27° NNE 22:04:14 27° NNE
Cosmos 2360 Rocket 4.4 22:05:30 10° N 22:08:30 17° NE 22:08:30 17° NE
Cosmos 2322 Rocket 4.0 22:09:28 10° N 22:12:34 25° NNE 22:12:34 25° NNE
Cosmos 1980 Rocket 3.8 22:11:29 10° NNW 22:14:20 31° NW 22:14:20 31° NW
Terra 4.4 22:21:20 15° NW 22:21:20 15° NW 22:22:28 10° NW
Cosmos 2082 Rocket 4.0 22:45:47 28° NNW 22:45:47 28° NNW 22:49:01 10° N
Cosmos 2344 4.4 22:48:37 10° NW 22:58:33 72° WSW 22:58:33 72° WSW
Cosmos 2219 Rocket 4.4 23:03:56 10° N 23:07:19 18° NE 23:07:19 18° NE
CZ-4C R/B 4.5 23:24:08 10° NW 23:27:10 24° WNW 23:27:10 24° WNW
Cosmos 2360 Rocket 4.2 23:48:19 10° NNW 23:50:15 22° NNW 23:50:15 22° NNW
